DW8953 Weather Reports


time (UTC)temp
C
wind
direction
speed
KPH
gust
KPH
rain 1hr
cm
rain 24hr
cm
rain mn
cm
humidity
%
barometer
mb
20260504081550 7 0 0.0 0.0 0.00 0.00 0.00 52 1016.7
20260504044554 8 0 0.0 0.0 0.00 0.00 0.00 66 1017.9
20260504043055 8 0 0.0 0.0 0.00 0.00 0.00 66 1017.9
20260504041548 8 0 0.0 0.0 0.00 0.00 0.00 68 1017.9
20260504040052 8 0 0.0 0.0 0.00 0.00 0.00 70 1017.8
20260504034545 9 0 0.0 0.0 0.00 0.00 0.00 71 1017.9
20260504033051 9 0 0.0 0.0 0.00 0.00 0.00 72 1018.0
20260504031553 10 0 0.0 0.0 0.00 0.00 0.00 73 1018.4
20260504030047 10 0 0.0 0.0 0.00 0.00 0.00 73 1018.5
20260504024549 10 0 0.0 0.0 0.00 0.00 0.00 73 1018.5
20260504023049 11 0 0.0 0.0 0.00 0.00 0.00 73 1018.3
20260504021549 11 0 0.0 0.0 0.00 0.00 0.00 72 1018.4
20260504020128 11 0 0.0 0.0 0.00 0.00 0.00 71 1018.2
20260504014602 12 0 0.0 0.0 0.00 0.00 0.00 69 1018.0
20260504013101 12 0 0.0 0.0 0.00 0.00 0.00 66 1017.6
20260504011551 13 0 0.0 0.0 0.00 0.00 0.00 62 1017.5
20260504010051 15 0 0.0 0.0 0.00 0.00 0.00 60 1017.3
20260504004620 15 0 0.0 0.0 0.00 0.00 0.00 58 1017.4
20260504003054 16 0 0.0 0.0 0.00 0.00 0.00 59 1017.3
20260504001617 17 0 0.0 0.0 0.00 0.00 0.00 54 1017.5
20260504000106 18 0 0.0 0.0 0.00 0.00 0.00 47 1017.5
20260503234601 18 0 0.0 0.0 0.00 0.00 0.00 42 1017.6
20260503233045 19 0 0.0 0.0 0.00 0.00 0.00 40 1017.7
20260503231552 20 0 0.0 0.0 0.00 0.00 0.00 41 1017.9
20260503230111 20 0 0.0 0.0 0.00 0.00 0.00 45 1017.9
20260503224553 20 0 0.0 0.0 0.00 0.00 0.00 42 1017.9
20260503223052 20 0 0.0 0.0 0.00 0.00 0.00 43 1018.0
20260503221554 20 0 0.0 0.0 0.00 0.00 0.00 41 1018.1
20260503220054 20 0 0.0 0.0 0.00 0.00 0.00 41 1018.4
20260503214557 20 0 0.0 0.0 0.00 0.00 0.00 44 1018.4
20260503213052 20 0 0.0 0.0 0.00 0.00 0.00 46 1018.4
20260503211551 20 0 0.0 0.0 0.00 0.00 0.00 42 1018.7
20260503210052 20 0 0.0 0.0 0.00 0.00 0.00 43 1019.0
20260503204551 20 0 0.0 0.0 0.00 0.00 0.00 42 1019.2
20260503203112 19 0 0.0 0.0 0.00 0.00 0.00 45 1019.3
20260503201554 19 0 0.0 0.0 0.00 0.00 0.00 47 1019.5
20260503200053 18 0 0.0 0.0 0.00 0.00 0.00 47 1020.0
20260503194557 18 0 0.0 0.0 0.00 0.00 0.00 51 1020.2
20260503193055 18 0 0.0 0.0 0.00 0.00 0.00 47 1020.5
20260503191557 18 0 0.0 0.0 0.00 0.00 0.00 56 1020.7
20260503190103 18 0 0.0 0.0 0.00 0.00 0.00 51 1020.8
20260503184552 18 0 0.0 0.0 0.00 0.00 0.00 54 1020.9
20260503183049 17 0 0.0 0.0 0.00 0.00 0.00 53 1021.0
20260503181558 17 0 0.0 0.0 0.00 0.00 0.00 55 1021.4
20260503180056 17 0 0.0 0.0 0.00 0.00 0.00 50 1021.2
20260503174548 17 0 0.0 0.0 0.00 0.00 0.00 53 1021.5
20260503173052 17 0 0.0 0.0 0.00 0.00 0.00 57 1021.8
20260503171549 16 0 0.0 0.0 0.00 0.00 0.00 53 1021.9